User: anonymous   Login
Location: Asheville, NC
(35.6000°N, 82.5500°W)
Time: 02:39:52
(UTC-04:00)
Language:

ISS - Orbit

View from above orbital plane
View from above orbital plane
View from above satellite
View from above satellite

Ground track
Ground track

The orbit data is extracted from the following two-line orbital elements,

1 25544U 98067A   19259.80166580  .00016717  00000-0  10270-3 0  9041
2 25544  51.6419 266.8859 0007331  52.9933 307.1888 15.50075335 29467
Epoch (UTC): 16 September 2019 19:14:23
Eccentricity: 0.0007331
inclination: 51.6419°
perigee height: 411 km
apogee height: 421 km
right ascension of ascending node: 266.8859°
argument of perigee: 52.9933°
revolutions per day: 15.50075335
mean anomaly at epoch: 307.1888°
orbit number at epoch: 2946

The dashed part of the orbit path shows where the satellite is in the earth's shadow,  

DLR